Walla Walla, WA

10:19 AM PDT on June 28, 2017 (GMT -0700)
Walla Walla Regional

Weather History for KALW - October, 2011

Change the Weather History Date:

Saturday, October 1, 2011

  Actual Average Record
Temperature  
Mean Temperature 68 °F 59 °F  
Max Temperature 75 °F 71 °F 87 °F (2008)
Min Temperature 60 °F 48 °F 32 °F (1950)
Degree Days  
Heating Degree Days 0 6  
Month to date heating degree days 6  
Since 1 July heating degree days 104  
Cooling Degree Days 2 1  
Month to date cooling degree days 1  
Year to date cooling degree days 846  
Growing Degree Days 18 (Base 50)    
Moisture  
Dew Point 47 °F    
Average Humidity 49    
Maximum Humidity 68    
Minimum Humidity 36    
Precipitation  
Precipitation 0.00 in 0.03 in 0.74 in (1951)
Month to date precipitation 0.03  
Year to date precipitation 13.86  
Snow  
Snow 0.00 in 0.00 in 0.00 in (2002)
Month to date snowfall 0.0  
Year to date snowfall 6.0  
Since 1 July snowfall 0.0  
Snow Depth -    
Sea Level Pressure  
Sea Level Pressure 29.83 in    
Wind  
Wind Speed 9 mph (South)    
Max Wind Speed 16 mph    
Max Gust Speed 28 mph    
Visibility 10 miles    
Events Rain    
T = Trace of Precipitation, MM = Missing Value Source: NWS Daily Summary

Daily Weather History Graph

Daily Weather History Graph

Search for Another Location

Airport or City:

Trip Planner

Search our weather history database for the weather conditions in past years. The results will help you decide how hot, cold, wet, or windy it might be!

Date:

Astronomy

Oct. 01, 2011 Rise Set
Actual Time 6:51 AM PDT 6:33 PM PDT
Civil Twilight 6:21 AM PDT 7:03 PM PDT
Nautical Twilight 5:46 AM PDT 7:37 PM PDT
Astronomical Twilight 5:11 AM PDT 8:13 PM PDT
Moon 12:22 PM PDT (10/1) 9:16 PM PDT (10/1)
Length of Visible Light 12h 41m
Length of Day
11h 42m
Waxing Crescent, 25% of the Moon is Illuminated
Oct 1
Waxing Crescent
Oct 3
First Quarter
Oct 11
Full
Oct 19
Last Quarter
Oct 26
New

Hourly Weather History & Observations

Time (PDT) Temp. Dew Point Humidity Pressure Visibility Wind Dir Wind Speed Gust Speed Precip Events Conditions
12:53 AM 64.0 °F 41.0 °F 43% 29.75 in 10.0 mi Calm Calm - N/A   Clear
1:53 AM 64.9 °F 42.1 °F 43% 29.75 in 10.0 mi ESE 11.5 mph - N/A   Clear
2:53 AM 69.8 °F 48.2 °F 46% 29.80 in 9.0 mi SE 13.8 mph 27.6 mph N/A Rain Light Rain
3:01 AM 69.8 °F 51.8 °F 53% 29.81 in 10.0 mi SSE 16.1 mph 23.0 mph 0.00 in Rain Light Rain
3:53 AM 69.1 °F 55.0 °F 61% 29.72 in 10.0 mi East 8.1 mph - 0.00 in Rain Light Rain
4:53 AM 70.0 °F 52.0 °F 53% 29.67 in 10.0 mi Variable 3.5 mph - 0.00 in   Clear
5:53 AM 66.0 °F 55.0 °F 68% 29.72 in 10.0 mi South 6.9 mph - N/A   Clear
6:53 AM 60.8 °F 46.4 °F 59% 29.77 in 10.0 mi SSW 9.2 mph - N/A   Clear
7:53 AM 61.0 °F 46.9 °F 60% 29.81 in 10.0 mi South 5.8 mph - N/A   Clear
8:53 AM 64.0 °F 46.9 °F 54% 29.82 in 10.0 mi SSW 10.4 mph - N/A   Clear
9:53 AM 66.9 °F 46.9 °F 49% 29.83 in 10.0 mi South 16.1 mph - N/A   Clear
10:53 AM 68.0 °F 46.0 °F 45% 29.84 in 10.0 mi SSW 11.5 mph - N/A   Clear
11:53 AM 69.1 °F 46.0 °F 44% 29.83 in 10.0 mi SW 15.0 mph - N/A   Clear
12:53 PM 70.0 °F 46.9 °F 44% 29.83 in 10.0 mi SSW 11.5 mph - N/A   Clear
1:53 PM 70.0 °F 46.9 °F 44% 29.83 in 10.0 mi SSW 10.4 mph - N/A   Clear
2:53 PM 73.0 °F 46.9 °F 39% 29.84 in 10.0 mi SW 9.2 mph - N/A   Clear
3:53 PM 75.0 °F 48.0 °F 38% 29.84 in 10.0 mi SSW 10.4 mph - N/A   Clear
4:53 PM 75.2 °F 46.4 °F 36% 29.86 in 10.0 mi SW 13.8 mph - N/A   Clear
5:53 PM 69.1 °F 45.0 °F 42% 29.87 in 10.0 mi WSW 12.7 mph - N/A   Clear
6:53 PM 66.0 °F 45.0 °F 47% 29.90 in 10.0 mi SW 10.4 mph - N/A   Clear
7:53 PM 64.0 °F 45.0 °F 50% 29.91 in 10.0 mi South 9.2 mph - N/A   Clear
8:53 PM 63.0 °F 45.0 °F 52% 29.92 in 10.0 mi South 6.9 mph - N/A   Clear
9:53 PM 63.0 °F 45.0 °F 52% 29.93 in 10.0 mi South 6.9 mph - N/A   Clear
10:53 PM 61.0 °F 45.0 °F 56% 29.93 in 10.0 mi SSW 6.9 mph - N/A   Clear
11:53 PM 60.1 °F 45.0 °F 57% 29.94 in 10.0 mi SSW 4.6 mph - N/A   Clear